[[{"header":{"parameterUnit":"m.s-1","parameterCategory":1,"la1":30.2991,"la2":30.254,"lo1":-89.0895,"lo2":-89.0444,"dy":0.0017,"dx":0.0017,"nx":28,"ny":28,"refTime":"2024-02-16T09:00:00:Z","depth":0,"parameterNumber":2,"parameterNumberName":"U-component_of_WINDS"},"data":[0,0,0,0,0,0,0,0,0,0,0,0,0,0,0,0,0,0,0,0,0,0,0,0,0,0,0,0,0,0,0,0,0,0,0,0,0,0,0,0,0,0,0,0,0,0,0,0,0,0,0,0,0,0,0,0,0,0,-1.1907,-1.1908,0,-1.1969,-1.197,-1.197,-1.1931,-1.193,-1.1928,-1.1926,-1.1992,-1.1995,-1.1999,0,0,0,0,0,0,0,0,0,0,0,0,0,-1.176,-1.1763,-1.1907,-1.1908,-1.1909,-1.1969,-1.197,-1.1971,-1.1932,-1.1929,-1.1927,-1.1925,-1.1991,-1.1995,-1.1999,0,0,0,0,0,0,0,0,0,0,0,0,0,-1.1823,-1.1764,-1.1907,-1.1897,-1.1896,-1.1969,-1.197,-1.1971,-1.1932,-1.1929,-1.1927,-1.1924,-1.199,-1.1995,-1.2,-1.2087,0,0,-1.2016,-1.2018,0,0,0,0,0,0,0,0,-1.182,-1.1829,-1.1897,-1.1898,-1.1897,-1.194,-1.1942,-1.201,-1.1933,-1.1919,-1.1926,-1.1923,-1.1977,-1.1983,-1.2001,-1.209,-1.2093,-1.2016,-1.2019,-1.2022,-1.2023,0,0,0,0,0,0,0,-1.1815,-1.1826,-1.1932,-1.1899,-1.1898,-1.189,-1.1896,-1.1955,-1.1963,-1.192,-1.1917,-1.1925,-1.1977,-1.1996,-1.2002,-1.2094,-1.2016,-1.2021,-1.2024,-1.2026,-1.226,-1.2263,0,0,0,0,0,0,-1.1811,-1.1822,-1.193,-1.1934,-1.1851,-1.1895,-1.1902,-1.1929,-1.1962,-1.1964,-1.1927,-1.1923,-1.1988,-1.1996,-1.2004,-1.2109,-1.2022,-1.2026,-1.2029,-1.2257,-1.226,-1.2264,0,0,0,0,0,0,-1.1808,-1.1821,-1.1927,-1.1877,-1.189,-1.19,-1.1931,-1.1932,-1.1951,-1.1967,-1.1969,-1.1945,-1.1987,-1.1997,-1.2067,-1.2111,-1.2029,-1.2033,-1.2253,-1.2258,-1.2262,-1.232,0,0,0,0,0,0,-1.1804,-1.182,-1.1852,-1.1878,-1.1893,-1.1988,-1.1934,-1.1935,-1.196,-1.1954,-1.1985,-1.1987,-1.1985,-1.2059,-1.2072,-1.2117,-1.2038,-1.2249,-1.2255,-1.2261,-1.2314,-1.2326,-1.2336,0,0,0,0,0,-1.1799,-1.1867,-1.1854,-1.1867,-1.1933,-1.199,-1.1999,-1.1994,-1.1963,-1.1996,-1.2007,-1.1986,-1.2104,-1.2067,-1.2081,-1.2128,-1.2246,-1.2253,-1.226,-1.2309,-1.2323,-1.2336,0,0,0,0,0,0,-1.1846,-1.187,-1.1856,-1.1934,-1.196,-1.1984,-1.2025,-1.201,-1.2046,-1.204,-1.2034,-1.2041,-1.2115,-1.2128,-1.2086,-1.2215,-1.2171,-1.2181,-1.2203,-1.2217,-1.2228,-1.2223,-1.2042,0,0,0,0,0,-1.1866,-1.1909,-1.1928,-1.1994,-1.2008,-1.2015,-1.2039,-1.2034,-1.2061,-1.2073,-1.2089,-1.2117,-1.2161,-1.219,-1.2231,-1.2316,-1.2323,-1.2356,-1.2366,-1.2375,-1.2384,-1.2432,-1.2447,-1.2287,-1.2287,-1.2286,0,0,-1.1906,-1.1924,-1.1952,-1.2004,-1.2024,-1.2071,-1.2024,-1.2075,-1.211,-1.2081,-1.2147,-1.2161,-1.2192,-1.2271,-1.2306,-1.2284,-1.243,-1.2384,-1.2391,-1.2395,-1.244,-1.2456,-1.2469,-1.2291,-1.229,-1.229,0,0,-1.2004,-1.2021,-1.2079,-1.21,-1.2131,-1.2135,-1.2149,-1.2175,-1.2183,-1.225,-1.2229,-1.2271,-1.2346,-1.237,-1.2392,-1.2501,-1.2483,-1.2514,-1.2572,-1.2618,-1.2631,-1.2642,-1.2681,-1.2696,-1.2523,-1.2523,-1.2523,0,-1.205,-1.2118,-1.2111,-1.2164,-1.2188,-1.2164,-1.2224,-1.2245,-1.2288,-1.2306,-1.2281,-1.2375,-1.2395,-1.2479,-1.2505,-1.2524,-1.2541,-1.251,-1.2629,-1.264,-1.2651,-1.2688,-1.2703,-1.2527,-1.2526,-1.2526,-1.2526,0,-1.2175,-1.2222,-1.2266,-1.2307,-1.2336,-1.2392,-1.2396,-1.2427,-1.2419,-1.2426,-1.2496,-1.2519,-1.2564,-1.2584,-1.2577,-1.2668,-1.2654,-1.2629,-1.2585,-1.267,-1.2705,-1.2719,-1.2532,-1.2531,-1.253,-1.2529,0,0,-1.2302,-1.234,-1.2356,-1.2375,-1.2408,-1.2446,-1.2502,-1.2546,-1.2573,-1.2604,-1.2651,-1.2716,-1.2694,-1.2719,-1.2715,-1.2756,-1.2842,-1.2726,-1.2727,-1.2747,-1.2945,-1.2963,-1.2979,-1.2831,-1.2833,-1.2835,-1.2942,0,-1.2402,-1.2498,-1.2494,-1.2584,-1.2629,-1.2608,-1.2657,-1.2683,-1.2692,-1.2732,-1.2743,-1.2789,-1.2756,-1.2771,-1.281,-1.2823,-1.2881,-1.2815,-1.2876,-1.2878,-1.2868,-1.2998,-1.3017,-1.3116,-1.2956,-1.2958,-1.296,0,-1.253,-1.2565,-1.266,-1.2687,-1.2706,-1.275,-1.2791,-1.2829,-1.286,-1.2863,-1.2892,-1.2882,-1.2941,-1.2895,-1.2976,-1.2931,-1.2956,-1.2966,-1.297,-1.2975,-1.2924,-1.3007,-1.3148,-1.3163,-1.2981,-1.298,-1.2978,0,-1.2614,-1.2685,-1.2751,-1.2768,-1.2802,-1.2834,-1.2849,-1.2877,-1.2904,-1.2941,-1.2959,-1.3002,-1.3026,-1.306,-1.3063,-1.3029,-1.3145,-1.3099,-1.3151,-1.3151,-1.3175,-1.3174,-1.3322,-1.3192,-1.3192,-1.3191,-1.3191,0,-1.2726,-1.2785,-1.279,-1.283,-1.2896,-1.2893,-1.2959,-1.2972,-1.2997,-1.3041,-1.3025,-1.3067,-1.3068,-1.3111,-1.3114,-1.3181,-1.3192,-1.3198,-1.3198,-1.3199,-1.3198,-1.3215,-1.3208,-1.3195,-1.3194,-1.3194,-1.3193,0,-1.2831,-1.2836,-1.2907,-1.2933,-1.2941,-1.2989,-1.3012,-1.3052,-1.306,-1.3116,-1.3129,-1.3142,-1.3192,-1.3198,-1.3257,-1.3259,-1.334,-1.3333,-1.333,-1.3328,-1.338,-1.3375,-1.3544,-1.3567,-1.3421,-1.3423,-1.3424,0,-1.2901,-1.2946,-1.2977,-1.3005,-1.3023,-1.3068,-1.3096,-1.3095,-1.3125,-1.3164,-1.3199,-1.3248,-1.3286,-1.3368,-1.3384,-1.3429,-1.3423,-1.3479,-1.343,-1.343,-1.3424,-1.3422,-1.3427,-1.3489,-1.349,-1.3492,-1.3493,0,-1.3026,-1.3027,-1.3067,-1.3109,-1.3143,-1.3176,-1.3207,-1.3231,-1.3235,-1.3269,-1.332,-1.335,-1.3411,-1.346,-1.3505,-1.3523,-1.3509,-1.3508,-1.3523,-1.3524,-1.3521,-1.3524,-1.3356,-1.3504,-1.3503,-1.3502,-1.3502,-1.3501,-1.3116,-1.3155,-1.3184,-1.323,-1.3253,-1.3283,-1.3322,-1.3335,-1.3377,-1.3425,-1.3423,-1.3479,-1.3511,-1.357,-1.3591,-1.3636,-1.3618,-1.3638,-1.3644,-1.3649,-1.3654,-1.3514,-1.3644,-1.3644,-1.3644,-1.3643,-1.3643,0,-1.324,-1.3258,-1.33,-1.3344,-1.3381,-1.3364,-1.3399,-1.3431,-1.348,-1.351,-1.3549,-1.3608,-1.3656,-1.3676,-1.3723,-1.3756,-1.3751,-1.3768,-1.3766,-1.3771,-1.3667,-1.365,-1.3772,-1.3772,-1.3772,-1.3772,-1.3772,-1.3772,-1.3309,-1.3375,-1.338,-1.3458,-1.3475,-1.353,-1.3551,-1.3579,-1.3603,-1.367,-1.3709,-1.3722,-1.3748,-1.3798,-1.3842,-1.3847,-1.3865,-1.3885,-1.3887,-1.3791,-1.3778,-1.3765,-1.3749,-1.3889,-1.3889,-1.3987,-1.3988,-1.3988]},{"header":{"parameterUnit":"m.s-1","parameterCategory":1,"la1":30.2991,"la2":30.254,"lo1":-89.0895,"lo2":-89.0444,"dy":0.0017,"dx":0.0017,"nx":28,"ny":28,"refTime":"2024-02-16T09:00:00:Z","depth":0,"parameterNumber":3,"parameterNumberName":"V-component_of_WINDS"},"data":[0,0,0,0,0,0,0,0,0,0,0,0,0,0,0,0,0,0,0,0,0,0,0,0,0,0,0,0,0,0,0,0,0,0,0,0,0,0,0,0,0,0,0,0,0,0,0,0,0,0,0,0,0,0,0,0,0,0,0.1543,0.1544,0,0.1634,0.1635,0.1636,0.1703,0.1703,0.1704,0.1704,0.1799,0.1801,0.1803,0,0,0,0,0,0,0,0,0,0,0,0,0,0.1428,0.1429,0.1543,0.1544,0.1545,0.1634,0.1635,0.1637,0.1703,0.1703,0.1704,0.1705,0.1798,0.1801,0.1803,0,0,0,0,0,0,0,0,0,0,0,0,0,0.1494,0.143,0.1543,0.1589,0.1594,0.1634,0.1636,0.1637,0.1703,0.1703,0.1704,0.1705,0.1798,0.1801,0.1804,0.1805,0,0,0.1813,0.1814,0,0,0,0,0,0,0,0,0.149,0.1498,0.1581,0.1586,0.1592,0.1658,0.163,0.1694,0.1702,0.1661,0.1704,0.1705,0.1752,0.1758,0.1774,0.181,0.1814,0.1813,0.1815,0.1816,0.1817,0,0,0,0,0,0,0,0.1486,0.1495,0.1579,0.1582,0.1589,0.1606,0.1616,0.1642,0.1701,0.1665,0.167,0.168,0.1755,0.1771,0.1776,0.1815,0.1813,0.1816,0.1817,0.1819,0.1859,0.1858,0,0,0,0,0,0,0.1474,0.1491,0.1576,0.1582,0.1542,0.1607,0.1619,0.1636,0.1701,0.1711,0.1679,0.1683,0.1765,0.1773,0.178,0.1787,0.1816,0.1819,0.1821,0.1859,0.1858,0.1858,0,0,0,0,0,0,0.1471,0.1481,0.1573,0.1538,0.1551,0.1608,0.1627,0.1637,0.1653,0.1711,0.1722,0.1685,0.1766,0.1776,0.1799,0.1792,0.182,0.1823,0.186,0.1859,0.1858,0.1801,0,0,0,0,0,0,0.1467,0.1479,0.148,0.1537,0.1552,0.1589,0.1626,0.1638,0.1658,0.1664,0.1719,0.1729,0.1768,0.1794,0.1802,0.1796,0.1825,0.1861,0.186,0.1858,0.1804,0.1798,0.1793,0,0,0,0,0,0.1463,0.1461,0.148,0.149,0.1554,0.1589,0.1597,0.1641,0.1657,0.1659,0.1696,0.1728,0.1791,0.1796,0.1805,0.18,0.1862,0.186,0.1859,0.1806,0.1799,0.1793,0,0,0,0,0,0,0.1402,0.1469,0.1491,0.1507,0.1541,0.16,0.1603,0.1632,0.1663,0.1667,0.172,0.1732,0.175,0.1777,0.1782,0.1806,0.183,0.183,0.1787,0.1781,0.1776,0.1769,0.1828,0,0,0,0,0,0.139,0.1411,0.1469,0.1478,0.1494,0.1545,0.1562,0.1592,0.1631,0.1646,0.1685,0.1721,0.1749,0.1767,0.1796,0.1808,0.1822,0.1809,0.1804,0.1799,0.1799,0.1808,0.1804,0.1852,0.1852,0.1852,0,0,0.1366,0.1405,0.1416,0.1466,0.1497,0.1519,0.1557,0.1578,0.1595,0.1649,0.1673,0.1703,0.1747,0.1765,0.1775,0.1788,0.1789,0.1797,0.1793,0.1796,0.1806,0.1802,0.1797,0.1851,0.1851,0.1851,0,0,0.1334,0.1365,0.1376,0.1406,0.1451,0.1485,0.1488,0.1542,0.1564,0.1589,0.163,0.1651,0.1698,0.1728,0.1749,0.1728,0.1759,0.1736,0.1709,0.1717,0.1714,0.171,0.1704,0.17,0.1736,0.1736,0.1736,0,0.1298,0.1332,0.1378,0.1397,0.1418,0.1468,0.148,0.1506,0.1559,0.1573,0.1587,0.1648,0.1681,0.1707,0.1702,0.1717,0.1722,0.1731,0.171,0.1708,0.1705,0.17,0.1697,0.1733,0.1733,0.1733,0.1734,0,0.1287,0.131,0.1313,0.1363,0.1384,0.14,0.1448,0.1465,0.1494,0.1527,0.1552,0.1593,0.1632,0.164,0.1668,0.167,0.1677,0.17,0.1726,0.1697,0.1693,0.1691,0.1728,0.173,0.173,0.1731,0,0,0.1219,0.1293,0.1294,0.1317,0.1371,0.139,0.1408,0.1445,0.1459,0.1493,0.151,0.1549,0.1571,0.1595,0.1627,0.1634,0.1616,0.1657,0.1659,0.1648,0.1621,0.1604,0.1601,0.1636,0.1636,0.1636,0.1618,0,0.1196,0.123,0.1272,0.1292,0.1314,0.1361,0.1377,0.1411,0.1443,0.1467,0.1501,0.1528,0.1555,0.157,0.1579,0.1616,0.1611,0.1618,0.1653,0.1653,0.1641,0.1598,0.158,0.1561,0.1616,0.1616,0.1616,0,0.1173,0.1205,0.1227,0.1279,0.129,0.1303,0.1341,0.1363,0.1404,0.1426,0.1453,0.1488,0.151,0.1532,0.1563,0.1566,0.1583,0.1604,0.1604,0.1609,0.1633,0.1603,0.1556,0.1553,0.1613,0.1613,0.1614,0,0.1122,0.117,0.119,0.1209,0.127,0.1278,0.1304,0.1346,0.1366,0.1399,0.1413,0.1448,0.1467,0.1494,0.1538,0.155,0.1564,0.159,0.1584,0.1583,0.1585,0.1585,0.1541,0.1595,0.1595,0.1595,0.1595,0,0.1092,0.1104,0.1168,0.118,0.1195,0.1243,0.1257,0.1287,0.1324,0.1343,0.1386,0.1404,0.1459,0.1483,0.1517,0.1538,0.1547,0.1566,0.1575,0.1562,0.156,0.1574,0.1577,0.1594,0.1594,0.1595,0.1595,0,0.1038,0.1081,0.1106,0.1162,0.1176,0.1185,0.1233,0.1247,0.128,0.1304,0.1313,0.1366,0.1396,0.1442,0.1486,0.1509,0.1525,0.1539,0.1511,0.1517,0.1508,0.1508,0.1473,0.1471,0.1525,0.1524,0.1524,0,0.1016,0.1026,0.1083,0.1099,0.1123,0.1148,0.1169,0.1217,0.1236,0.1284,0.1292,0.1326,0.1356,0.1402,0.1445,0.1479,0.1495,0.148,0.1501,0.1488,0.1496,0.1495,0.1496,0.1476,0.1475,0.1474,0.1474,0,0.0973,0.0994,0.1021,0.1057,0.108,0.111,0.1142,0.1153,0.1208,0.1228,0.126,0.1283,0.1328,0.1361,0.1401,0.1429,0.1461,0.1467,0.1467,0.1455,0.1438,0.1448,0.1498,0.1467,0.1468,0.1468,0.1469,0.1469,0.0935,0.0946,0.0988,0.1018,0.1047,0.1076,0.1092,0.1127,0.1154,0.1195,0.1222,0.1252,0.1293,0.135,0.1376,0.1401,0.1414,0.1415,0.1415,0.1414,0.141,0.1434,0.1408,0.1408,0.1409,0.1409,0.1409,0,0.0895,0.0924,0.095,0.0994,0.1017,0.1044,0.1082,0.11,0.1125,0.1161,0.1189,0.1226,0.1258,0.1303,0.1339,0.135,0.1366,0.1358,0.1358,0.1364,0.1396,0.1392,0.1345,0.1345,0.1345,0.1345,0.1345,0.1345,0.0876,0.0897,0.0923,0.0959,0.0989,0.1018,0.1037,0.1065,0.1093,0.1132,0.1159,0.1188,0.1228,0.1267,0.1298,0.1311,0.1322,0.131,0.1327,0.1356,0.1362,0.1367,0.1364,0.1312,0.1312,0.1293,0.1293,0.1293]}]]